STARLINK-1670 (46370 NORAD) Tracking and Keplerian Element Data

This shows tracking and keplerian element data for the satellite.

Feedback or suggestion? Click here.




ElementValue
Catalog46370
NameSTARLINK-1670
Epoch Orbit1407
Epoch Day332.16667824
Epoch Year2020
RAAN15.2843
Inclination53.0002
Eccentricity0.0001232
Argument of Perigee72.0766
Mean Anonmoly230.5198
Mean Motion15.34559192
Decay Rate-0.01075603
L11 46370U 20062AX 20332.16667824 -.01075603 00000-0 -34529-1 0 9998
L22 46370 53.0002 15.2843 0001232 72.0766 230.5198 15.34559192 14075

Live tracking and technical data element details for STARLINK-1670 (NORAD 46370). STARLINK-1670 can be tracked NOW for your location showing map with azimuth and elevation plus other details from your city location.

Track the satellite on the map from your city or location and see movement details for azimuth, elevation, latitude, longitude, range, height, and movement on the map or in text.







IsCatalogInMostPopularTable: catalog: 46370, numindb: 28
Update: records affected: 1



GetName: 46370 STARLINK-1670

Hit Count: updated at: Fri, 27 Nov 2020 14:54:31 GMT